DMSP 5D-2 F11 DEB, 28342

Orbit data source: Space-Track

DMSP 5D-2 F11 DEB, 28342 is space debris in SSO originally from a launch on Thu, 28 Nov 1991 UTC launched from the Air Force Western Test Range (AFWTR). Debris objects in space refer to the collection of defunct objects orbiting the Earth. Examples of debris include non-operational satellites, rocket bodies, and fragments generated from explosions, collisions, or faulty payload assembly.

Loading next visibility...
Identifier
28342, 1991-082BF
Orbit
SSO
Country
Flag of USUS
Related business
Manufacturer
Unknown
Mission
Spacecraft
Bus & Motor
Unknown
Mass
Unknown
Launch date (UTC)
1991-11-28 (35 years ago)
Launch vehicle
Unknown
Launch site
Air Force Western Test Range (AFWTR)
Object type
Payload
Rocket body
Debris
Shape & HBR
Unknown shape, 0.1 m
Radar Cross Section
Medium (>0.1 m² and <1 m²)

Expand to show TLE details & history
Last TLE update: 1 day ago

TLE from 1 day ago
0 DMSP 5D-2 F11 DEB
1 28342U 91082BF  26208.05060972  .00004152  00000-0  13174-2 0  9996
2 28342  98.9601 281.1336 0062402 348.9426  11.0385 14.39458704144651
Epoch: 2026-07-27T01:12Z
TLE epoch observation values (Epoch: 2026-07-27T01:12:52.679Z)
Latitude
-0.00005°
Longitude
-41.82564°
Altitude
719.501 km
Speed
7.519 km/s
True Right ascension
18h 44m 32s
True Declination
0° 00' 00"
Sunlit
Object was in full shadow at epoch
Visualization orbit readout
Latitude
Unknown
Longitude
Unknown
Altitude
Unknown
Speed
Unknown
Apparent Right ascension
Unknown
Apparent Declination
Unknown
Sunlit
N/A
Visualization observer readout
Local Sidereal Time
20:41:25
Azimuth
Unknown
Elevation
Unknown
Doppler factor
Unknown
Orbital elements
Apogee altitude
801.96 km
Perigee altitude
712.905 km
Semi-major axis
7,135.569 km
Eccentricity
0.00624
Inclination
98.9601°
RAAN
281.1336°
Arg. of periapsis
348.9426°
True anomaly
11.17647°
Mean anomaly
11.0385°
Eccentric anomaly
11.10738°
Mean motion
3.60081 °/min
Orbital period
99.98 mins
BSTAR
0.0013174
Loading maneuver chart data...
Computing Atmospheric mass density...

Documentation

Showing up to 5 results
|